When you browse on this site, cookies collect data to enhance your experience and personalize the content and advertising you see.
Visit our Privacy Policy to learn more. By continuing to use the site, you agree to this use of cookies and data.
  • In Latvia
  • List of Countries
  • For 7 days
  • Water Temperature
  • Weather Map
  • Weather Widgets
  • user-avatar
    Login

    Hourly Weather Novodeviche

    Today, 18 August, Sunday

    Time Temperature Precipitation Wind Pressure Humidity
    00:00 +21°C° 0 mm 2 mps 750 mmHg 53%
    01:00 +21°C° 0 mm 2 mps 750 mmHg 53%
    02:00 +21°C° 0 mm 3 mps 750 mmHg 53%
    03:00 +21°C° 0 mm 3 mps 750 mmHg 53%
    04:00 +21°C° 0 mm 3 mps 750 mmHg 54%
    05:00 +21°C° 0 mm 3 mps 750 mmHg 54%
    06:00 +22°C° 0 mm 3 mps 750 mmHg 55%
    07:00 +22°C° 0 mm 3 mps 750 mmHg 55%
    08:00 +24°C° 0 mm 3 mps 751 mmHg 55%
    09:00 +25°C° 0 mm 3 mps 751 mmHg 55%
    10:00 +26°C° 0 mm 4 mps 751 mmHg 53%
    11:00 +27°C° 0 mm 4 mps 751 mmHg 50%
    12:00 +28°C° 0 mm 4 mps 751 mmHg 48%
    13:00 +29°C° 0 mm 4 mps 751 mmHg 48%
    14:00 +29°C° 0 mm 3 mps 751 mmHg 48%
    15:00 +30°C° 0 mm 3 mps 751 mmHg 49%
    16:00 +29°C° 0 mm 3 mps 751 mmHg 51%
    17:00 +28°C° 0 mm 3 mps 751 mmHg 53%
    18:00 +27°C° 0 mm 3 mps 751 mmHg 55%
    19:00 +26°C° 0 mm 3 mps 752 mmHg 54%
    20:00 +25°C° 0 mm 3 mps 752 mmHg 53%
    21:00 +24°C° 0 mm 3 mps 752 mmHg 52%
    22:00 +24°C° 0 mm 3 mps 752 mmHg 50%
    23:00 +24°C° 0 mm 2 mps 752 mmHg 48%

    Tomorrow, 19 August, Monday

    Time Temperature Precipitation Wind Pressure Humidity
    00:00 +24°C° 0 mm 2 mps 752 mmHg 46%
    01:00 +24°C° 0 mm 2 mps 752 mmHg 45%
    02:00 +24°C° 0 mm 2 mps 753 mmHg 44%
    03:00 +24°C° 0 mm 2 mps 753 mmHg 43%
    04:00 +23°C° 0 mm 2 mps 753 mmHg 47%
    05:00 +23°C° 0 mm 1 mps 753 mmHg 51%
    06:00 +23°C° 0 mm 1 mps 753 mmHg 55%
    07:00 +24°C° 0 mm 2 mps 753 mmHg 53%
    08:00 +25°C° 0 mm 2 mps 753 mmHg 51%
    09:00 +27°C° 0 mm 3 mps 753 mmHg 48%
    10:00 +28°C° 0 mm 4 mps 753 mmHg 45%
    11:00 +30°C° 0 mm 5 mps 753 mmHg 42%
    12:00 +32°C° 0 mm 6 mps 753 mmHg 39%
    13:00 +32°C° 0 mm 5 mps 753 mmHg 39%
    14:00 +33°C° 0 mm 5 mps 753 mmHg 39%
    15:00 +33°C° 0 mm 4 mps 753 mmHg 40%
    16:00 +31°C° 0 mm 3 mps 753 mmHg 44%
    17:00 +29°C° 0 mm 2 mps 753 mmHg 47%
    18:00 +28°C° 0 mm 1 mps 753 mmHg 51%
    19:00 +27°C° 0 mm 1 mps 753 mmHg 50%
    20:00 +26°C° 0 mm 1 mps 753 mmHg 49%
    21:00 +24°C° 0 mm 0 mps 753 mmHg 47%
    22:00 +23°C° 0 mm 0 mps 753 mmHg 49%
    23:00 +25°C° 0 mm 1 mps 753 mmHg 51%

    Day after tomorrow, 20 August, Tuesday

    Time Temperature Precipitation Wind Pressure Humidity
    00:00 +24°C° 0 mm 1 mps 753 mmHg 52%
    01:00 +24°C° 0 mm 1 mps 753 mmHg 59%
    02:00 +23°C° 0 mm 2 mps 753 mmHg 66%
    03:00 +21°C° 0 mm 2 mps 753 mmHg 73%
    04:00 +21°C° 0 mm 2 mps 753 mmHg 76%
    05:00 +21°C° 0 mm 2 mps 753 mmHg 80%
    06:00 +21°C° 0 mm 2 mps 753 mmHg 84%
    07:00 +23°C° 0 mm 2 mps 753 mmHg 78%
    08:00 +25°C° 0 mm 2 mps 754 mmHg 73%
    09:00 +26°C° 0 mm 2 mps 754 mmHg 67%
    10:00 +27°C° 0 mm 3 mps 754 mmHg 63%
    11:00 +28°C° 0 mm 3 mps 754 mmHg 60%
    12:00 +28°C° 0 mm 3 mps 754 mmHg 57%
    13:00 +28°C° 0 mm 3 mps 754 mmHg 57%
    14:00 +28°C° 0 mm 3 mps 754 mmHg 57%
    15:00 +28°C° 0 mm 3 mps 754 mmHg 57%
    16:00 +27°C° 0 mm 3 mps 754 mmHg 62%
    17:00 +26°C° 0 mm 3 mps 754 mmHg 67%
    18:00 +25°C° 0 mm 3 mps 754 mmHg 71%
    19:00 +22°C° 0 mm 3 mps 754 mmHg 76%
    20:00 +21°C° 0 mm 3 mps 754 mmHg 81%
    21:00 +20°C° 0 mm 3 mps 754 mmHg 86%
    22:00 +19°C° 0 mm 3 mps 754 mmHg 88%
    23:00 +19°C° 0 mm 3 mps 754 mmHg 90%

    21 August, Wednesday

    Time Temperature Precipitation Wind Pressure Humidity
    00:00 +19°C° 0 mm 3 mps 755 mmHg 91%
    01:00 +18°C° 0 mm 3 mps 755 mmHg 92%
    02:00 +18°C° 0 mm 3 mps 755 mmHg 93%
    03:00 +18°C° 0 mm 3 mps 755 mmHg 94%
    04:00 +18°C° 0 mm 3 mps 755 mmHg 92%
    05:00 +19°C° 0 mm 3 mps 755 mmHg 91%
    06:00 +19°C° 0 mm 3 mps 755 mmHg 90%
    07:00 +21°C° 0 mm 3 mps 755 mmHg 83%
    08:00 +22°C° 0 mm 3 mps 755 mmHg 77%
    09:00 +25°C° 0 mm 3 mps 755 mmHg 70%
    10:00 +26°C° 0 mm 3 mps 755 mmHg 66%
    11:00 +26°C° 0 mm 4 mps 755 mmHg 62%
    12:00 +27°C° 0 mm 4 mps 755 mmHg 58%
    13:00 +28°C° 0 mm 4 mps 755 mmHg 57%
    14:00 +28°C° 0 mm 4 mps 754 mmHg 56%
    15:00 +28°C° 0 mm 4 mps 754 mmHg 55%
    16:00 +27°C° 0 mm 3 mps 754 mmHg 60%
    17:00 +26°C° 0 mm 3 mps 754 mmHg 65%
    18:00 +25°C° 0 mm 2 mps 754 mmHg 70%
    19:00 +24°C° 0 mm 2 mps 754 mmHg 74%
    20:00 +23°C° 0 mm 2 mps 754 mmHg 79%
    21:00 +22°C° 0 mm 1 mps 754 mmHg 83%
    22:00 +22°C° 0 mm 1 mps 754 mmHg 85%
    23:00 +21°C° 0 mm 1 mps 754 mmHg 88%

    22 August, Thursday

    Time Temperature Precipitation Wind Pressure Humidity
    00:00 +21°C° 0 mm 1 mps 754 mmHg 90%
    01:00 +20°C° 0 mm 2 mps 755 mmHg 92%
    02:00 +19°C° 0 mm 2 mps 755 mmHg 93%
    03:00 +19°C° 0 mm 2 mps 755 mmHg 95%
    04:00 +19°C° 0 mm 3 mps 755 mmHg 95%
    05:00 +19°C° 0 mm 3 mps 755 mmHg 95%
    06:00 +19°C° 0 mm 3 mps 754 mmHg 95%
    07:00 +20°C° 0 mm 3 mps 755 mmHg 90%
    08:00 +21°C° 0 mm 3 mps 755 mmHg 85%
    09:00 +22°C° 0 mm 3 mps 755 mmHg 80%
    10:00 +24°C° 0 mm 3 mps 754 mmHg 71%
    11:00 +25°C° 0 mm 2 mps 754 mmHg 62%
    12:00 +26°C° 0 mm 2 mps 754 mmHg 53%
    13:00 +26°C° 0 mm 2 mps 754 mmHg 50%
    14:00 +27°C° 0 mm 2 mps 754 mmHg 48%
    15:00 +27°C° 0 mm 2 mps 753 mmHg 45%
    16:00 +26°C° 0 mm 2 mps 753 mmHg 52%
    17:00 +25°C° 0 mm 2 mps 753 mmHg 58%
    18:00 +23°C° 0 mm 2 mps 753 mmHg 64%
    19:00 +22°C° 0 mm 1 mps 753 mmHg 65%
    20:00 +21°C° 0 mm 1 mps 753 mmHg 66%
    21:00 +20°C° 0 mm 1 mps 753 mmHg 67%
    22:00 +19°C° 0 mm 1 mps 753 mmHg 69%
    23:00 +17°C° 0 mm 0 mps 753 mmHg 71%

    23 August, Friday

    Time Temperature Precipitation Wind Pressure Humidity
    00:00 +16°C° 0 mm 0 mps 753 mmHg 73%
    01:00 +16°C° 0 mm 0 mps 752 mmHg 72%
    02:00 +18°C° 0 mm 1 mps 752 mmHg 72%
    03:00 +18°C° 0 mm 1 mps 752 mmHg 72%
    04:00 +19°C° 0 mm 1 mps 752 mmHg 73%
    05:00 +18°C° 0 mm 2 mps 752 mmHg 73%
    06:00 +18°C° 0 mm 2 mps 752 mmHg 74%
    07:00 +20°C° 0 mm 2 mps 752 mmHg 71%
    08:00 +22°C° 0 mm 3 mps 752 mmHg 69%
    09:00 +25°C° 0 mm 3 mps 752 mmHg 66%
    10:00 +26°C° 0.2 mm 3 mps 752 mmHg 68%
    11:00 +26°C° 0.2 mm 4 mps 752 mmHg 69%
    12:00 +26°C° 0.2 mm 4 mps 752 mmHg 70%
    13:00 +25°C° 0.2 mm 5 mps 752 mmHg 70%
    14:00 +25°C° 0.2 mm 5 mps 752 mmHg 69%
    15:00 +23°C° 0.2 mm 5 mps 753 mmHg 68%
    16:00 +22°C° 0 mm 5 mps 753 mmHg 71%
    17:00 +21°C° 0 mm 5 mps 753 mmHg 73%
    18:00 +20°C° 0 mm 5 mps 753 mmHg 75%
    19:00 +19°C° 0 mm 4 mps 754 mmHg 78%
    20:00 +17°C° 0 mm 4 mps 754 mmHg 81%
    21:00 +15°C° 0 mm 4 mps 754 mmHg 85%
    22:00 +15°C° 0 mm 4 mps 754 mmHg 86%
    23:00 +14°C° 0 mm 3 mps 754 mmHg 88%
    Show more